Time,TemperatureF,DewpointF,PressureIn,WindDirection,WindDirectionDegrees,WindSpeedMPH,WindSpeedGustMPH,Humidity,HourlyPrecipIn,Conditions,Clouds,dailyrainin,SoftwareType,DateUTC
2013-02-10 00:00:00,66.2,63.1,-100.00,SE,135,3.0,6.0,90,0.00,,,0.00,meteohub,2013-02-10 06:00:00,
2013-02-10 00:02:00,66.2,63.1,-100.00,SE,135,3.0,6.0,90,0.00,,,0.00,meteohub,2013-02-10 06:02:00,
2013-02-10 00:08:00,66.2,63.1,-100.00,NNE,23,0.0,6.0,90,0.00,,,0.00,meteohub,2013-02-10 06:08:00,
2013-02-10 00:10:00,66.4,63.3,-100.00,NNE,23,0.0,5.0,90,0.00,,,0.00,meteohub,2013-02-10 06:10:00,
2013-02-10 00:14:00,66.4,63.3,-100.00,SSW,203,2.0,5.0,90,0.00,,,0.00,meteohub,2013-02-10 06:14:00,
2013-02-10 00:16:00,66.4,63.3,-100.00,South,180,3.0,7.0,90,0.00,,,0.00,meteohub,2013-02-10 06:16:00,
2013-02-10 00:18:00,66.4,63.3,-100.00,South,180,1.0,7.0,90,0.00,,,0.00,meteohub,2013-02-10 06:18:00,
2013-02-10 00:22:00,66.4,63.3,-100.00,SSW,203,2.0,7.0,90,0.00,,,0.00,meteohub,2013-02-10 06:22:00,
2013-02-10 00:24:00,66.4,63.3,-100.00,SSW,203,6.0,7.0,90,0.00,,,0.00,meteohub,2013-02-10 06:24:00,
2013-02-10 00:26:00,66.6,63.5,-100.00,SE,135,2.0,7.0,90,0.00,,,0.00,meteohub,2013-02-10 06:26:00,
2013-02-10 00:32:00,66.4,63.3,-100.00,SE,135,5.0,6.0,90,0.00,,,0.00,meteohub,2013-02-10 06:32:00,
2013-02-10 00:34:00,66.4,63.3,-100.00,SW,225,4.0,6.0,90,0.00,,,0.00,meteohub,2013-02-10 06:34:00,
2013-02-10 00:38:00,66.6,63.5,-100.00,South,180,4.0,6.0,90,0.00,,,0.00,meteohub,2013-02-10 06:38:00,
2013-02-10 00:40:00,66.6,63.5,-100.00,South,180,3.0,6.0,90,0.00,,,0.00,meteohub,2013-02-10 06:40:00,
2013-02-10 00:42:00,66.4,63.0,-100.00,SSW,203,3.0,6.0,89,0.00,,,0.00,meteohub,2013-02-10 06:42:00,
2013-02-10 00:44:00,66.6,63.1,-100.00,SE,135,0.0,6.0,89,0.00,,,0.00,meteohub,2013-02-10 06:44:00,
2013-02-10 00:50:00,66.4,63.0,-100.00,SSE,158,1.0,13.0,89,0.00,,,0.00,meteohub,2013-02-10 06:50:00,
2013-02-10 00:52:00,66.6,63.1,-100.00,SSW,203,3.0,13.0,89,0.00,,,0.00,meteohub,2013-02-10 06:52:00,
2013-02-10 00:54:00,66.6,63.1,-100.00,SSE,158,4.0,13.0,89,0.00,,,0.00,meteohub,2013-02-10 06:54:00,
2013-02-10 00:56:00,66.6,63.1,-100.00,South,180,2.0,13.0,89,0.00,,,0.00,meteohub,2013-02-10 06:56:00,
2013-02-10 00:58:00,66.4,63.0,-100.00,South,180,2.0,13.0,89,0.00,,,0.00,meteohub,2013-02-10 06:58:00,
2013-02-10 01:02:00,66.4,63.0,-100.00,South,180,2.0,13.0,89,0.00,,,0.00,meteohub,2013-02-10 07:02:00,
2013-02-10 01:06:00,66.4,63.0,-100.00,South,180,2.0,4.0,89,0.00,,,0.00,meteohub,2013-02-10 07:06:00,
2013-02-10 01:08:00,66.4,63.0,-100.00,South,180,5.0,5.0,89,0.00,,,0.00,meteohub,2013-02-10 07:08:00,
2013-02-10 01:12:00,66.4,63.0,-100.00,West,270,0.0,5.0,89,0.00,,,0.00,meteohub,2013-02-10 07:12:00,
2013-02-10 01:14:00,66.4,63.0,-100.00,SE,135,1.0,5.0,89,0.00,,,0.00,meteohub,2013-02-10 07:14:00,
2013-02-10 01:16:00,66.4,63.0,-100.00,SSE,158,2.0,5.0,89,0.00,,,0.00,meteohub,2013-02-10 07:16:00,
2013-02-10 01:18:00,66.4,63.0,-100.00,SSE,158,2.0,5.0,89,0.00,,,0.00,meteohub,2013-02-10 07:18:00,
2013-02-10 01:20:00,66.4,63.0,-100.00,WSW,248,2.0,5.0,89,0.00,,,0.00,meteohub,2013-02-10 07:20:00,
2013-02-10 01:22:00,66.4,63.0,-100.00,SSE,158,2.0,5.0,89,0.00,,,0.00,meteohub,2013-02-10 07:22:00,
2013-02-10 01:26:00,66.4,63.0,-100.00,SSW,203,0.0,2.0,89,0.00,,,0.00,meteohub,2013-02-10 07:26:00,
2013-02-10 01:28:00,66.4,63.0,-100.00,SSW,203,0.0,2.0,89,0.00,,,0.00,meteohub,2013-02-10 07:28:00,
2013-02-10 01:32:00,66.4,63.0,-100.00,SSW,203,0.0,2.0,89,0.00,,,0.00,meteohub,2013-02-10 07:32:00,
2013-02-10 01:38:00,66.4,63.0,-100.00,NE,45,2.0,2.0,89,0.00,,,0.00,meteohub,2013-02-10 07:38:00,
2013-02-10 01:44:00,66.2,62.8,-100.00,WNW,293,0.0,2.0,89,0.00,,,0.00,meteohub,2013-02-10 07:44:00,
2013-02-10 01:46:00,66.2,63.1,-100.00,NW,315,2.0,2.0,90,0.02,,,0.02,meteohub,2013-02-10 07:46:00,
2013-02-10 01:47:00,66.2,63.1,-100.00,NW,315,2.0,2.0,90,0.02,,,0.02,meteohub,2013-02-10 07:47:00,
2013-02-10 01:52:00,65.7,62.1,-100.00,WNW,293,5.0,11.0,88,0.04,,,0.04,meteohub,2013-02-10 07:52:00,
2013-02-10 01:54:00,65.1,61.2,-100.00,West,270,1.0,11.0,87,0.04,,,0.04,meteohub,2013-02-10 07:54:00,
2013-02-10 01:56:00,64.8,60.8,-100.00,West,270,1.0,11.0,87,0.08,,,0.08,meteohub,2013-02-10 07:56:00,
2013-02-10 01:58:00,64.4,60.1,-100.00,West,270,1.0,11.0,86,0.08,,,0.08,meteohub,2013-02-10 07:58:00,
2013-02-10 02:00:00,64.4,60.1,-100.00,West,270,1.0,11.0,86,0.10,,,0.10,meteohub,2013-02-10 08:00:00,
2013-02-10 02:02:00,63.9,59.5,-100.00,West,270,0.0,11.0,86,0.10,,,0.10,meteohub,2013-02-10 08:02:00,
2013-02-10 02:06:00,63.5,59.5,-100.00,West,270,0.0,5.0,87,0.12,,,0.12,meteohub,2013-02-10 08:06:00,
2013-02-10 02:08:00,63.3,59.7,-100.00,West,270,1.0,5.0,88,0.12,,,0.12,meteohub,2013-02-10 08:08:00,
2013-02-10 02:14:00,63.3,59.7,-100.00,SE,135,1.0,1.0,88,0.12,,,0.12,meteohub,2013-02-10 08:14:00,
2013-02-10 02:16:00,63.1,59.5,-100.00,SSE,158,0.0,1.0,88,0.29,,,0.29,meteohub,2013-02-10 08:16:00,
2013-02-10 02:20:00,63.0,59.4,-100.00,SW,225,0.0,1.0,88,0.29,,,0.29,meteohub,2013-02-10 08:20:00,
2013-02-10 02:22:00,63.0,59.4,-100.00,West,270,0.0,1.0,88,0.29,,,0.29,meteohub,2013-02-10 08:22:00,
2013-02-10 02:24:00,62.8,59.2,-100.00,South,180,2.0,2.0,88,0.29,,,0.29,meteohub,2013-02-10 08:24:00,
2013-02-10 02:26:00,62.8,59.2,-100.00,SSE,158,1.0,1.0,88,0.31,,,0.31,meteohub,2013-02-10 08:26:00,
2013-02-10 02:30:00,62.8,59.5,-100.00,ESE,113,0.0,2.0,89,0.33,,,0.33,meteohub,2013-02-10 08:30:00,
2013-02-10 02:33:00,62.6,59.4,-100.00,SE,135,2.0,2.0,89,0.33,,,0.33,meteohub,2013-02-10 08:33:00,
2013-02-10 02:37:00,62.6,59.4,-100.00,East,90,1.0,2.0,89,0.33,,,0.33,meteohub,2013-02-10 08:37:00,
2013-02-10 02:39:00,62.4,59.2,-100.00,NE,45,0.0,2.0,89,0.33,,,0.33,meteohub,2013-02-10 08:39:00,
2013-02-10 02:45:00,62.4,59.2,-100.00,SSW,203,2.0,2.0,89,0.33,,,0.33,meteohub,2013-02-10 08:45:00,
2013-02-10 02:47:00,62.6,59.4,-100.00,ESE,113,1.0,2.0,89,0.29,,,0.33,meteohub,2013-02-10 08:47:00,
2013-02-10 02:51:00,62.8,59.7,-100.00,SSE,158,0.0,2.0,90,0.28,,,0.35,meteohub,2013-02-10 08:51:00,
2013-02-10 02:53:00,62.8,59.7,-100.00,SSE,158,0.0,2.0,90,0.28,,,0.35,meteohub,2013-02-10 08:53:00,
2013-02-10 02:57:00,62.8,59.7,-100.00,ENE,68,0.0,2.0,90,0.26,,,0.35,meteohub,2013-02-10 08:57:00,
2013-02-10 02:59:00,62.8,59.7,-100.00,East,90,0.0,2.0,90,0.26,,,0.35,meteohub,2013-02-10 08:59:00,
2013-02-10 03:01:00,62.8,59.7,-100.00,East,90,0.0,1.0,90,0.24,,,0.35,meteohub,2013-02-10 09:01:00,
2013-02-10 03:05:00,63.0,59.9,-100.00,SSE,158,0.0,0.0,90,0.22,,,0.35,meteohub,2013-02-10 09:05:00,
2013-02-10 03:07:00,63.1,60.1,-100.00,NE,45,0.0,0.0,90,0.22,,,0.35,meteohub,2013-02-10 09:07:00,
2013-02-10 03:11:00,63.1,60.1,-100.00,ESE,113,0.0,0.0,90,0.06,,,0.35,meteohub,2013-02-10 09:11:00,
2013-02-10 03:15:00,63.3,60.3,-100.00,South,180,2.0,2.0,90,0.06,,,0.35,meteohub,2013-02-10 09:15:00,
2013-02-10 03:17:00,63.5,60.8,-100.00,WSW,248,0.0,2.0,91,0.06,,,0.35,meteohub,2013-02-10 09:17:00,
2013-02-10 03:21:00,63.7,61.0,-100.00,SSE,158,0.0,2.0,91,0.04,,,0.35,meteohub,2013-02-10 09:21:00,
2013-02-10 03:23:00,63.9,61.2,-100.00,SSW,203,0.0,2.0,91,0.04,,,0.35,meteohub,2013-02-10 09:23:00,
2013-02-10 03:27:00,64.2,61.5,-100.00,East,90,1.0,2.0,91,0.04,,,0.35,meteohub,2013-02-10 09:27:00,
2013-02-10 03:29:00,64.6,62.2,-100.00,South,180,2.0,2.0,92,0.04,,,0.35,meteohub,2013-02-10 09:29:00,
2013-02-10 03:31:00,64.8,62.4,-100.00,WSW,248,2.0,2.0,92,0.02,,,0.35,meteohub,2013-02-10 09:31:00,
2013-02-10 03:35:00,64.9,62.6,-100.00,South,180,2.0,2.0,92,0.02,,,0.35,meteohub,2013-02-10 09:35:00,
2013-02-10 03:37:00,65.1,62.8,-100.00,South,180,0.0,2.0,92,0.02,,,0.35,meteohub,2013-02-10 09:37:00,
2013-02-10 03:41:00,65.1,62.8,-100.00,West,270,1.0,2.0,92,0.02,,,0.35,meteohub,2013-02-10 09:41:00,
2013-02-10 03:43:00,65.1,63.0,-100.00,SW,225,0.0,2.0,93,0.02,,,0.35,meteohub,2013-02-10 09:43:00,
2013-02-10 03:47:00,65.1,63.0,-100.00,South,180,3.0,3.0,93,0.00,,,0.35,meteohub,2013-02-10 09:47:00,
2013-02-10 03:49:00,65.1,63.0,-100.00,ESE,113,0.0,2.0,93,0.00,,,0.35,meteohub,2013-02-10 09:49:00,
2013-02-10 03:53:00,65.3,63.1,-100.00,SSW,203,0.0,3.0,93,0.00,,,0.35,meteohub,2013-02-10 09:53:00,
2013-02-10 03:55:00,65.3,63.1,-100.00,SSW,203,2.0,3.0,93,0.00,,,0.35,meteohub,2013-02-10 09:55:00,
2013-02-10 03:59:00,65.3,63.1,-100.00,East,90,0.0,3.0,93,0.00,,,0.35,meteohub,2013-02-10 09:59:00,
2013-02-10 04:01:00,65.3,63.1,-100.00,East,90,0.0,3.0,93,0.00,,,0.35,meteohub,2013-02-10 10:01:00,
2013-02-10 04:02:00,65.3,63.1,-100.00,East,90,0.0,3.0,93,0.00,,,0.35,meteohub,2013-02-10 10:02:00,
2013-02-10 04:05:00,65.3,63.1,-100.00,WNW,293,0.0,2.0,93,0.00,,,0.35,meteohub,2013-02-10 10:05:00,
2013-02-10 04:07:00,65.3,63.1,-100.00,West,270,1.0,2.0,93,0.00,,,0.35,meteohub,2013-02-10 10:07:00,
2013-02-10 04:09:00,65.3,63.1,-100.00,WNW,293,1.0,2.0,93,0.00,,,0.35,meteohub,2013-02-10 10:09:00,
2013-02-10 04:15:00,65.5,63.3,-100.00,WNW,293,1.0,1.0,93,0.00,,,0.35,meteohub,2013-02-10 10:15:00,
2013-02-10 04:17:00,65.5,63.3,-100.00,WNW,293,1.0,1.0,93,0.00,,,0.35,meteohub,2013-02-10 10:17:00,
2013-02-10 04:21:00,65.5,63.3,-100.00,NW,315,4.0,4.0,93,0.00,,,0.35,meteohub,2013-02-10 10:21:00,
2013-02-10 04:23:00,65.1,63.0,-100.00,West,270,3.0,3.0,93,0.00,,,0.35,meteohub,2013-02-10 10:23:00,
2013-02-10 04:29:00,64.0,61.3,-100.00,West,270,6.0,6.0,91,0.00,,,0.35,meteohub,2013-02-10 10:29:00,
2013-02-10 04:31:00,63.3,60.1,-100.00,ENE,68,3.0,4.0,89,0.00,,,0.35,meteohub,2013-02-10 10:31:00,
2013-02-10 04:33:00,63.1,59.5,-100.00,West,270,4.0,4.0,88,0.00,,,0.35,meteohub,2013-02-10 10:33:00,
2013-02-10 04:37:00,62.4,57.9,-100.00,NNW,338,3.0,6.0,85,0.00,,,0.35,meteohub,2013-02-10 10:37:00,
2013-02-10 04:39:00,61.9,57.0,-100.00,WSW,248,4.0,6.0,84,0.00,,,0.35,meteohub,2013-02-10 10:39:00,
2013-02-10 04:41:00,61.5,56.3,-100.00,NW,315,1.0,6.0,83,0.00,,,0.35,meteohub,2013-02-10 10:41:00,
2013-02-10 04:45:00,61.0,55.0,-100.00,NW,315,4.0,4.0,81,0.00,,,0.35,meteohub,2013-02-10 10:45:00,
2013-02-10 04:47:00,61.0,55.0,-100.00,NW,315,4.0,4.0,81,0.00,,,0.35,meteohub,2013-02-10 10:47:00,
2013-02-10 04:51:00,60.4,54.5,-100.00,ENE,68,0.0,4.0,81,0.00,,,0.35,meteohub,2013-02-10 10:51:00,
2013-02-10 04:53:00,60.1,54.3,-100.00,West,270,0.0,4.0,81,0.00,,,0.35,meteohub,2013-02-10 10:53:00,
2013-02-10 04:55:00,59.9,54.1,-100.00,WNW,293,3.0,4.0,81,0.00,,,0.35,meteohub,2013-02-10 10:55:00,
2013-02-10 05:01:00,59.5,53.8,-100.00,NW,315,4.0,4.0,81,0.00,,,0.35,meteohub,2013-02-10 11:01:00,
2013-02-10 05:02:00,59.4,53.8,-100.00,West,270,5.0,5.0,82,0.00,,,0.35,meteohub,2013-02-10 11:02:00,
2013-02-10 05:05:00,59.2,53.4,-100.00,WNW,293,6.0,6.0,81,0.00,,,0.35,meteohub,2013-02-10 11:05:00,
2013-02-10 05:07:00,58.8,53.1,-100.00,WNW,293,5.0,6.0,81,0.00,,,0.35,meteohub,2013-02-10 11:07:00,
2013-02-10 05:09:00,58.6,52.5,-100.00,WNW,293,2.0,6.0,80,0.00,,,0.35,meteohub,2013-02-10 11:09:00,
2013-02-10 05:11:00,58.5,52.3,-100.00,NW,315,4.0,6.0,80,0.00,,,0.35,meteohub,2013-02-10 11:11:00,
2013-02-10 05:15:00,58.3,52.2,-100.00,North,0,4.0,6.0,80,0.00,,,0.35,meteohub,2013-02-10 11:15:00,
2013-02-10 05:17:00,58.3,52.2,-100.00,North,0,4.0,6.0,80,0.00,,,0.35,meteohub,2013-02-10 11:17:00,
2013-02-10 05:21:00,57.4,50.9,-100.00,NW,315,4.0,6.0,79,0.02,,,0.37,meteohub,2013-02-10 11:21:00,
2013-02-10 05:23:00,57.4,50.5,-100.00,WNW,293,6.0,6.0,78,0.02,,,0.37,meteohub,2013-02-10 11:23:00,
2013-02-10 05:25:00,57.0,50.2,-100.00,WSW,248,3.0,6.0,78,0.02,,,0.37,meteohub,2013-02-10 11:25:00,
2013-02-10 05:29:00,57.0,49.8,-100.00,WNW,293,5.0,6.0,77,0.02,,,0.37,meteohub,2013-02-10 11:29:00,
2013-02-10 05:31:00,56.8,49.3,-100.00,West,270,0.0,6.0,76,0.02,,,0.37,meteohub,2013-02-10 11:31:00,
2013-02-10 05:32:00,56.8,49.3,-100.00,West,270,0.0,6.0,76,0.02,,,0.37,meteohub,2013-02-10 11:32:00,
2013-02-10 05:38:00,56.3,48.9,-100.00,West,270,3.0,6.0,76,0.02,,,0.37,meteohub,2013-02-10 11:38:00,
2013-02-10 05:42:00,56.1,48.0,-100.00,WNW,293,3.0,6.0,74,0.02,,,0.37,meteohub,2013-02-10 11:42:00,
2013-02-10 05:44:00,55.9,47.8,-100.00,WNW,293,5.0,6.0,74,0.02,,,0.37,meteohub,2013-02-10 11:44:00,
2013-02-10 05:46:00,55.9,47.5,-100.00,West,270,0.0,5.0,73,0.02,,,0.37,meteohub,2013-02-10 11:46:00,
2013-02-10 05:47:00,55.9,47.5,-100.00,West,270,0.0,5.0,73,0.02,,,0.37,meteohub,2013-02-10 11:47:00,
2013-02-10 05:50:00,55.6,47.1,-100.00,West,270,0.0,5.0,73,0.02,,,0.37,meteohub,2013-02-10 11:50:00,
2013-02-10 05:52:00,55.6,46.8,-100.00,WNW,293,2.0,5.0,72,0.02,,,0.37,meteohub,2013-02-10 11:52:00,
2013-02-10 05:54:00,55.6,46.8,-100.00,West,270,3.0,5.0,72,0.02,,,0.37,meteohub,2013-02-10 11:54:00,
2013-02-10 05:58:00,55.2,46.4,-100.00,WNW,293,1.0,5.0,72,0.02,,,0.37,meteohub,2013-02-10 11:58:00,
2013-02-10 06:00:00,55.2,46.0,-100.00,West,270,2.0,5.0,71,0.02,,,0.37,meteohub,2013-02-10 12:00:00,
2013-02-10 06:04:00,55.0,45.5,-100.00,SW,225,0.0,3.0,70,0.02,,,0.37,meteohub,2013-02-10 12:04:00,
2013-02-10 06:10:00,55.0,45.1,-100.00,SE,135,0.0,3.0,69,0.02,,,0.37,meteohub,2013-02-10 12:10:00,
2013-02-10 06:12:00,54.9,45.0,-100.00,SE,135,0.0,3.0,69,0.02,,,0.37,meteohub,2013-02-10 12:12:00,
2013-02-10 06:14:00,54.9,45.0,-100.00,SE,135,0.0,3.0,69,0.02,,,0.37,meteohub,2013-02-10 12:14:00,
2013-02-10 06:16:00,54.7,44.8,-100.00,SE,135,0.0,1.0,69,0.02,,,0.37,meteohub,2013-02-10 12:16:00,
2013-02-10 06:17:00,54.7,44.8,-100.00,SE,135,0.0,1.0,69,0.02,,,0.37,meteohub,2013-02-10 12:17:00,
2013-02-10 06:22:00,54.9,45.0,-100.00,WSW,248,0.0,1.0,69,0.00,,,0.37,meteohub,2013-02-10 12:22:00,
2013-02-10 06:24:00,54.7,45.1,-100.00,NW,315,0.0,1.0,70,0.00,,,0.37,meteohub,2013-02-10 12:24:00,
2013-02-10 06:26:00,54.7,44.8,-100.00,WNW,293,0.0,0.0,69,0.00,,,0.37,meteohub,2013-02-10 12:26:00,
2013-02-10 06:28:00,54.7,44.8,-100.00,NW,315,0.0,0.0,69,0.00,,,0.37,meteohub,2013-02-10 12:28:00,
2013-02-10 06:32:00,54.7,44.8,-100.00,WNW,293,2.0,0.0,69,0.00,,,0.37,meteohub,2013-02-10 12:32:00,
2013-02-10 06:34:00,54.7,44.8,-100.00,West,270,0.0,0.0,69,0.00,,,0.37,meteohub,2013-02-10 12:34:00,
2013-02-10 06:38:00,54.7,44.2,-100.00,West,270,0.0,2.0,68,0.00,,,0.37,meteohub,2013-02-10 12:38:00,
2013-02-10 06:40:00,54.7,44.2,-100.00,NNE,23,0.0,2.0,68,0.00,,,0.37,meteohub,2013-02-10 12:40:00,
2013-02-10 06:44:00,54.5,44.2,-100.00,SW,225,0.0,2.0,68,0.00,,,0.37,meteohub,2013-02-10 12:44:00,
2013-02-10 06:46:00,54.7,43.9,-100.00,SSW,203,0.0,2.0,67,0.00,,,0.37,meteohub,2013-02-10 12:46:00,
2013-02-10 06:47:00,54.7,43.9,-100.00,SSW,203,0.0,2.0,67,0.00,,,0.37,meteohub,2013-02-10 12:47:00,
2013-02-10 06:48:00,54.7,43.9,-100.00,WNW,293,0.0,2.0,67,0.00,,,0.37,meteohub,2013-02-10 12:48:00,
2013-02-10 06:50:00,54.7,43.9,-100.00,WSW,248,0.0,0.0,67,0.00,,,0.37,meteohub,2013-02-10 12:50:00,
2013-02-10 06:52:00,54.7,43.5,-100.00,WNW,293,0.0,0.0,66,0.00,,,0.37,meteohub,2013-02-10 12:52:00,
2013-02-10 06:56:00,54.7,43.5,-100.00,WSW,248,0.0,0.0,66,0.00,,,0.37,meteohub,2013-02-10 12:56:00,
2013-02-10 06:58:00,54.7,43.5,-100.00,WNW,293,0.0,0.0,66,0.00,,,0.37,meteohub,2013-02-10 12:58:00,
2013-02-10 07:02:00,54.7,43.5,-100.00,West,270,3.0,0.0,66,0.00,,,0.37,meteohub,2013-02-10 13:02:00,
2013-02-10 07:04:00,54.5,43.0,-100.00,West,270,0.0,0.0,65,0.00,,,0.37,meteohub,2013-02-10 13:04:00,
2013-02-10 07:08:00,54.5,42.6,-100.00,WNW,293,4.0,4.0,64,0.00,,,0.37,meteohub,2013-02-10 13:08:00,
2013-02-10 07:10:00,54.5,42.6,-100.00,WNW,293,1.0,4.0,64,0.00,,,0.37,meteohub,2013-02-10 13:10:00,
2013-02-10 07:12:00,54.5,42.1,-100.00,SSW,203,0.0,4.0,63,0.00,,,0.37,meteohub,2013-02-10 13:12:00,
2013-02-10 07:16:00,54.5,41.7,-100.00,West,270,0.0,4.0,62,0.00,,,0.37,meteohub,2013-02-10 13:16:00,
2013-02-10 07:17:00,54.5,41.7,-100.00,West,270,0.0,4.0,62,0.00,,,0.37,meteohub,2013-02-10 13:17:00,
2013-02-10 07:22:00,54.3,41.2,-100.00,West,270,2.0,4.0,61,0.00,,,0.37,meteohub,2013-02-10 13:22:00,
2013-02-10 07:26:00,54.3,40.3,-100.00,West,270,2.0,2.0,59,0.00,,,0.37,meteohub,2013-02-10 13:26:00,
2013-02-10 07:28:00,54.3,40.3,-100.00,WNW,293,3.0,3.0,59,0.00,,,0.37,meteohub,2013-02-10 13:28:00,
2013-02-10 07:32:00,54.3,39.9,-100.00,East,90,0.0,2.0,58,0.00,,,0.37,meteohub,2013-02-10 13:32:00,
2013-02-10 07:34:00,54.3,39.4,-100.00,NW,315,3.0,3.0,57,0.00,,,0.37,meteohub,2013-02-10 13:34:00,
2013-02-10 07:38:00,54.3,39.0,-100.00,WNW,293,3.0,3.0,56,0.00,,,0.37,meteohub,2013-02-10 13:38:00,
2013-02-10 07:44:00,54.5,38.1,-100.00,WNW,293,7.0,7.0,54,0.00,,,0.37,meteohub,2013-02-10 13:44:00,
2013-02-10 07:46:00,54.3,37.9,-100.00,WNW,293,4.0,7.0,54,0.00,,,0.37,meteohub,2013-02-10 13:46:00,
2013-02-10 07:50:00,54.3,37.6,-100.00,SW,225,2.0,7.0,53,0.00,,,0.37,meteohub,2013-02-10 13:50:00,
2013-02-10 07:52:00,54.5,37.8,-100.00,NW,315,2.0,7.0,53,0.00,,,0.37,meteohub,2013-02-10 13:52:00,
2013-02-10 07:54:00,54.7,37.4,-100.00,West,270,2.0,7.0,52,0.00,,,0.37,meteohub,2013-02-10 13:54:00,
2013-02-10 07:56:00,54.7,36.9,-100.00,West,270,2.0,7.0,51,0.00,,,0.37,meteohub,2013-02-10 13:56:00,
2013-02-10 07:58:00,55.0,37.2,-100.00,NW,315,0.0,7.0,51,0.00,,,0.37,meteohub,2013-02-10 13:58:00,
2013-02-10 08:02:00,55.0,37.2,-100.00,WNW,293,1.0,4.0,51,0.00,,,0.37,meteohub,2013-02-10 14:02:00,
2013-02-10 08:06:00,55.0,36.7,-100.00,West,270,4.0,4.0,50,0.00,,,0.37,meteohub,2013-02-10 14:06:00,
2013-02-10 08:10:00,55.0,36.1,-100.00,West,270,1.0,4.0,49,0.00,,,0.37,meteohub,2013-02-10 14:10:00,
2013-02-10 08:12:00,55.0,36.1,-100.00,West,270,1.0,4.0,49,0.00,,,0.37,meteohub,2013-02-10 14:12:00,
2013-02-10 08:17:00,55.0,35.8,-100.00,West,270,3.0,4.0,48,0.00,,,0.37,meteohub,2013-02-10 14:17:00,
2013-02-10 08:23:00,55.2,36.0,-100.00,NW,315,2.0,4.0,48,0.00,,,0.37,meteohub,2013-02-10 14:23:00,
2013-02-10 08:27:00,55.2,36.0,-100.00,NW,315,2.0,4.0,48,0.00,,,0.37,meteohub,2013-02-10 14:27:00,
2013-02-10 08:29:00,55.2,36.0,-100.00,West,270,1.0,4.0,48,0.00,,,0.37,meteohub,2013-02-10 14:29:00,
2013-02-10 08:32:00,55.4,36.0,-100.00,West,270,2.0,3.0,48,0.00,,,0.37,meteohub,2013-02-10 14:32:00,
2013-02-10 08:33:00,55.2,36.0,-100.00,WNW,293,2.0,3.0,48,0.00,,,0.37,meteohub,2013-02-10 14:33:00,
2013-02-10 08:37:00,55.4,36.0,-100.00,WNW,293,1.0,3.0,48,0.00,,,0.37,meteohub,2013-02-10 14:37:00,
2013-02-10 08:39:00,55.2,35.4,-100.00,NW,315,2.0,3.0,47,0.00,,,0.37,meteohub,2013-02-10 14:39:00,
2013-02-10 08:43:00,55.2,36.0,-100.00,WNW,293,2.0,3.0,48,0.00,,,0.37,meteohub,2013-02-10 14:43:00,
2013-02-10 08:47:00,55.4,36.0,-100.00,WNW,293,0.0,4.0,48,0.00,,,0.37,meteohub,2013-02-10 14:47:00,
2013-02-10 08:49:00,55.4,36.0,-100.00,WNW,293,1.0,4.0,48,0.00,,,0.37,meteohub,2013-02-10 14:49:00,
2013-02-10 08:53:00,55.4,36.0,-100.00,WSW,248,0.0,4.0,48,0.00,,,0.37,meteohub,2013-02-10 14:53:00,
2013-02-10 08:59:00,55.6,36.1,-100.00,West,270,1.0,4.0,48,0.00,,,0.37,meteohub,2013-02-10 14:59:00,
2013-02-10 09:01:00,55.8,36.3,-100.00,West,270,1.0,2.0,48,0.00,,,0.37,meteohub,2013-02-10 15:01:00,
2013-02-10 09:03:00,55.8,35.8,-100.00,West,270,5.0,5.0,47,0.00,,,0.37,meteohub,2013-02-10 15:03:00,
2013-02-10 09:05:00,55.9,36.0,-100.00,West,270,2.0,5.0,47,0.00,,,0.37,meteohub,2013-02-10 15:05:00,
2013-02-10 09:09:00,55.9,36.0,-100.00,West,270,3.0,5.0,47,0.00,,,0.37,meteohub,2013-02-10 15:09:00,
2013-02-10 09:11:00,56.1,35.6,-100.00,WNW,293,1.0,5.0,46,0.00,,,0.37,meteohub,2013-02-10 15:11:00,
2013-02-10 09:17:00,56.1,35.6,-100.00,WNW,293,2.0,5.0,46,0.00,,,0.37,meteohub,2013-02-10 15:17:00,
2013-02-10 09:21:00,56.3,35.2,-100.00,West,270,2.0,4.0,45,0.00,,,0.37,meteohub,2013-02-10 15:21:00,
2013-02-10 09:25:00,56.3,35.2,-100.00,West,270,0.0,3.0,45,0.00,,,0.37,meteohub,2013-02-10 15:25:00,
2013-02-10 09:31:00,56.7,35.6,-100.00,WNW,293,2.0,4.0,45,0.00,,,0.37,meteohub,2013-02-10 15:31:00,
2013-02-10 09:32:00,56.7,35.6,-100.00,WNW,293,2.0,4.0,45,0.00,,,0.37,meteohub,2013-02-10 15:32:00,
2013-02-10 09:37:00,56.8,35.8,-100.00,NW,315,0.0,4.0,45,0.00,,,0.37,meteohub,2013-02-10 15:37:00,
2013-02-10 09:39:00,56.8,35.2,-100.00,West,270,4.0,4.0,44,0.00,,,0.37,meteohub,2013-02-10 15:39:00,
2013-02-10 09:43:00,57.0,34.7,-100.00,WNW,293,3.0,4.0,43,0.00,,,0.37,meteohub,2013-02-10 15:43:00,
2013-02-10 09:47:00,57.0,34.7,-100.00,West,270,3.0,7.0,43,0.00,,,0.37,meteohub,2013-02-10 15:47:00,
2013-02-10 09:49:00,57.0,34.7,-100.00,West,270,3.0,7.0,43,0.00,,,0.37,meteohub,2013-02-10 15:49:00,
2013-02-10 09:53:00,57.4,35.1,-100.00,WNW,293,4.0,7.0,43,0.00,,,0.37,meteohub,2013-02-10 15:53:00,
2013-02-10 09:55:00,57.4,34.5,-100.00,East,90,1.0,7.0,42,0.00,,,0.37,meteohub,2013-02-10 15:55:00,
2013-02-10 09:57:00,57.4,35.1,-100.00,North,0,0.0,7.0,43,0.00,,,0.37,meteohub,2013-02-10 15:57:00,
2013-02-10 10:01:00,57.6,35.2,-100.00,West,270,2.0,4.0,43,0.00,,,0.37,meteohub,2013-02-10 16:01:00,
2013-02-10 10:03:00,57.6,35.2,-100.00,WNW,293,1.0,4.0,43,0.00,,,0.37,meteohub,2013-02-10 16:03:00,
2013-02-10 10:09:00,58.3,35.2,-100.00,West,270,4.0,4.0,42,0.00,,,0.37,meteohub,2013-02-10 16:09:00,
2013-02-10 10:11:00,58.3,34.7,-100.00,NW,315,2.0,5.0,41,0.00,,,0.37,meteohub,2013-02-10 16:11:00,
2013-02-10 10:15:00,58.5,35.4,-100.00,NNE,23,1.0,5.0,42,0.00,,,0.37,meteohub,2013-02-10 16:15:00,
2013-02-10 10:17:00,58.6,35.1,-100.00,West,270,4.0,5.0,41,0.00,,,0.37,meteohub,2013-02-10 16:17:00,
2013-02-10 10:19:00,58.6,35.1,-100.00,WNW,293,5.0,5.0,41,0.00,,,0.37,meteohub,2013-02-10 16:19:00,
2013-02-10 10:22:00,58.8,34.5,-100.00,WSW,248,2.0,5.0,40,0.00,,,0.37,meteohub,2013-02-10 16:22:00,
2013-02-10 10:26:00,58.6,33.8,-100.00,West,270,3.0,5.0,39,0.00,,,0.37,meteohub,2013-02-10 16:26:00,
2013-02-10 10:28:00,58.8,34.0,-100.00,West,270,0.0,5.0,39,0.00,,,0.37,meteohub,2013-02-10 16:28:00,
2013-02-10 10:30:00,58.8,34.0,-100.00,West,270,0.0,5.0,39,0.00,,,0.37,meteohub,2013-02-10 16:30:00,
2013-02-10 10:32:00,58.8,34.5,-100.00,WNW,293,3.0,5.0,40,0.00,,,0.37,meteohub,2013-02-10 16:32:00,
2013-02-10 10:34:00,59.0,34.7,-100.00,WNW,293,2.0,5.0,40,0.00,,,0.37,meteohub,2013-02-10 16:34:00,
2013-02-10 10:40:00,59.2,34.2,-100.00,North,0,4.0,5.0,39,0.00,,,0.37,meteohub,2013-02-10 16:40:00,
2013-02-10 10:42:00,59.0,34.2,-100.00,WNW,293,3.0,6.0,39,0.00,,,0.37,meteohub,2013-02-10 16:42:00,
2013-02-10 10:46:00,59.2,34.2,-100.00,SSE,158,2.0,6.0,39,0.00,,,0.37,meteohub,2013-02-10 16:46:00,
2013-02-10 10:48:00,59.2,34.2,-100.00,NE,45,0.0,6.0,39,0.00,,,0.37,meteohub,2013-02-10 16:48:00,
2013-02-10 10:54:00,59.4,34.3,-100.00,WNW,293,2.0,6.0,39,0.00,,,0.37,meteohub,2013-02-10 16:54:00,
2013-02-10 10:56:00,59.4,34.3,-100.00,West,270,2.0,4.0,39,0.00,,,0.37,meteohub,2013-02-10 16:56:00,
2013-02-10 11:00:00,59.5,34.0,-100.00,WSW,248,4.0,4.0,38,0.00,,,0.37,meteohub,2013-02-10 17:00:00,
2013-02-10 11:02:00,59.5,34.0,-100.00,West,270,2.0,4.0,38,0.00,,,0.37,meteohub,2013-02-10 17:02:00,
2013-02-10 11:08:00,59.5,34.0,-100.00,WNW,293,0.0,4.0,38,0.00,,,0.37,meteohub,2013-02-10 17:08:00,
2013-02-10 11:12:00,59.5,34.0,-100.00,NNE,23,1.0,4.0,38,0.00,,,0.37,meteohub,2013-02-10 17:12:00,
2013-02-10 11:16:00,59.7,34.0,-100.00,WSW,248,1.0,4.0,38,0.00,,,0.37,meteohub,2013-02-10 17:16:00,
2013-02-10 11:18:00,59.7,34.7,-100.00,NW,315,1.0,4.0,39,0.00,,,0.37,meteohub,2013-02-10 17:18:00,
2013-02-10 11:22:00,59.7,34.7,-100.00,West,270,1.0,2.0,39,0.00,,,0.37,meteohub,2013-02-10 17:22:00,
2013-02-10 11:24:00,59.7,34.7,-100.00,NW,315,3.0,3.0,39,0.00,,,0.37,meteohub,2013-02-10 17:24:00,
2013-02-10 11:28:00,59.9,34.9,-100.00,WNW,293,2.0,2.0,39,0.00,,,0.37,meteohub,2013-02-10 17:28:00,
2013-02-10 11:30:00,60.1,34.3,-100.00,NE,45,2.0,3.0,38,0.00,,,0.37,meteohub,2013-02-10 17:30:00,
2013-02-10 11:32:00,60.1,34.3,-100.00,West,270,0.0,3.0,38,0.00,,,0.37,meteohub,2013-02-10 17:32:00,
2013-02-10 11:36:00,60.1,33.8,-100.00,West,270,2.0,3.0,37,0.00,,,0.37,meteohub,2013-02-10 17:36:00,
2013-02-10 11:38:00,60.1,33.8,-100.00,West,270,2.0,3.0,37,0.00,,,0.37,meteohub,2013-02-10 17:38:00,
2013-02-10 11:44:00,60.3,34.5,-100.00,NNE,23,1.0,3.0,38,0.00,,,0.37,meteohub,2013-02-10 17:44:00,
2013-02-10 11:48:00,60.4,34.0,-100.00,WNW,293,2.0,2.0,37,0.00,,,0.37,meteohub,2013-02-10 17:48:00,
2013-02-10 11:50:00,60.4,34.0,-100.00,NW,315,1.0,3.0,37,0.00,,,0.37,meteohub,2013-02-10 17:50:00,
2013-02-10 11:52:00,60.4,34.0,-100.00,NW,315,1.0,3.0,37,0.00,,,0.37,meteohub,2013-02-10 17:52:00,
2013-02-10 11:56:00,60.6,34.2,-100.00,WNW,293,1.0,3.0,37,0.00,,,0.37,meteohub,2013-02-10 17:56:00,
2013-02-10 11:58:00,60.6,33.4,-100.00,West,270,1.0,3.0,36,0.00,,,0.37,meteohub,2013-02-10 17:58:00,
2013-02-10 12:00:00,60.6,33.4,-100.00,West,270,6.0,6.0,36,0.00,,,0.37,meteohub,2013-02-10 18:00:00,
2013-02-10 12:02:00,60.6,33.4,-100.00,NNE,23,0.0,3.0,36,0.00,,,0.37,meteohub,2013-02-10 18:02:00,
2013-02-10 12:06:00,60.8,33.6,-100.00,WNW,293,3.0,6.0,36,0.00,,,0.37,meteohub,2013-02-10 18:06:00,
2013-02-10 12:10:00,61.0,33.1,-100.00,NW,315,3.0,6.0,35,0.00,,,0.37,meteohub,2013-02-10 18:10:00,
2013-02-10 12:12:00,60.8,32.9,-100.00,WNW,293,5.0,6.0,35,0.00,,,0.37,meteohub,2013-02-10 18:12:00,
2013-02-10 12:16:00,60.6,32.9,-100.00,WNW,293,0.0,6.0,35,0.00,,,0.37,meteohub,2013-02-10 18:16:00,
2013-02-10 12:18:00,60.8,32.9,-100.00,East,90,2.0,6.0,35,0.00,,,0.37,meteohub,2013-02-10 18:18:00,
2013-02-10 12:20:00,61.0,33.1,-100.00,West,270,0.0,5.0,35,0.00,,,0.37,meteohub,2013-02-10 18:20:00,
2013-02-10 12:22:00,61.0,33.1,-100.00,NE,45,0.0,5.0,35,0.00,,,0.37,meteohub,2013-02-10 18:22:00,
2013-02-10 12:24:00,61.3,33.4,-100.00,East,90,2.0,5.0,35,0.00,,,0.37,meteohub,2013-02-10 18:24:00,
2013-02-10 12:26:00,61.5,33.6,-100.00,SSE,158,1.0,5.0,35,0.00,,,0.37,meteohub,2013-02-10 18:26:00,
2013-02-10 12:30:00,61.7,33.8,-100.00,NE,45,0.0,3.0,35,0.00,,,0.37,meteohub,2013-02-10 18:30:00,
2013-02-10 12:32:00,61.9,34.0,-100.00,ESE,113,1.0,3.0,35,0.00,,,0.37,meteohub,2013-02-10 18:32:00,
2013-02-10 12:34:00,61.9,34.0,-100.00,WNW,293,0.0,3.0,35,0.00,,,0.37,meteohub,2013-02-10 18:34:00,
2013-02-10 12:38:00,62.4,34.3,-100.00,West,270,3.0,3.0,35,0.00,,,0.37,meteohub,2013-02-10 18:38:00,
2013-02-10 12:40:00,62.8,34.0,-100.00,NW,315,3.0,3.0,34,0.00,,,0.37,meteohub,2013-02-10 18:40:00,
2013-02-10 12:44:00,63.1,34.3,-100.00,WSW,248,3.0,3.0,34,0.00,,,0.37,meteohub,2013-02-10 18:44:00,
2013-02-10 12:46:00,63.3,34.5,-100.00,NW,315,2.0,3.0,34,0.00,,,0.37,meteohub,2013-02-10 18:46:00,
2013-02-10 12:53:00,63.3,34.5,-100.00,WSW,248,4.0,4.0,34,0.00,,,0.37,meteohub,2013-02-10 18:53:00,
2013-02-10 12:57:00,63.3,33.8,-100.00,WNW,293,2.0,4.0,33,0.00,,,0.37,meteohub,2013-02-10 18:57:00,
2013-02-10 13:01:00,63.5,33.8,-100.00,WNW,293,3.0,4.0,33,0.00,,,0.37,meteohub,2013-02-10 19:01:00,
2013-02-10 13:03:00,63.3,33.8,-100.00,NW,315,3.0,4.0,33,0.00,,,0.37,meteohub,2013-02-10 19:03:00,
2013-02-10 13:07:00,63.3,33.8,-100.00,WNW,293,2.0,4.0,33,0.00,,,0.37,meteohub,2013-02-10 19:07:00,
2013-02-10 13:09:00,63.3,33.8,-100.00,West,270,1.0,4.0,33,0.00,,,0.37,meteohub,2013-02-10 19:09:00,
2013-02-10 13:11:00,63.5,33.8,-100.00,NNW,338,1.0,3.0,33,0.00,,,0.37,meteohub,2013-02-10 19:11:00,
2013-02-10 13:13:00,63.3,33.8,-100.00,NE,45,2.0,3.0,33,0.00,,,0.37,meteohub,2013-02-10 19:13:00,
2013-02-10 13:17:00,63.5,33.8,-100.00,NNE,23,5.0,5.0,33,0.00,,,0.37,meteohub,2013-02-10 19:17:00,
2013-02-10 13:21:00,63.5,33.8,-100.00,NNE,23,0.0,5.0,33,0.00,,,0.37,meteohub,2013-02-10 19:21:00,
2013-02-10 13:23:00,63.5,33.8,-100.00,NNE,23,0.0,5.0,33,0.00,,,0.37,meteohub,2013-02-10 19:23:00,
2013-02-10 13:25:00,63.7,34.7,-100.00,ENE,68,1.0,5.0,34,0.00,,,0.37,meteohub,2013-02-10 19:25:00,
2013-02-10 13:29:00,64.0,34.3,-100.00,WNW,293,0.0,5.0,33,0.00,,,0.37,meteohub,2013-02-10 19:29:00,
2013-02-10 13:31:00,64.0,34.3,-100.00,NW,315,0.0,5.0,33,0.00,,,0.37,meteohub,2013-02-10 19:31:00,
2013-02-10 13:33:00,64.0,34.3,-100.00,WSW,248,1.0,5.0,33,0.00,,,0.37,meteohub,2013-02-10 19:33:00,
2013-02-10 13:37:00,64.2,35.2,-100.00,NNE,23,1.0,1.0,34,0.00,,,0.37,meteohub,2013-02-10 19:37:00,
2013-02-10 13:39:00,64.2,35.2,-100.00,West,270,0.0,1.0,34,0.00,,,0.37,meteohub,2013-02-10 19:39:00,
2013-02-10 13:41:00,64.6,34.9,-100.00,North,0,2.0,2.0,33,0.00,,,0.37,meteohub,2013-02-10 19:41:00,
2013-02-10 13:43:00,64.8,35.1,-100.00,ENE,68,1.0,1.0,33,0.00,,,0.37,meteohub,2013-02-10 19:43:00,
2013-02-10 13:47:00,65.1,35.2,-100.00,West,270,3.0,3.0,33,0.00,,,0.37,meteohub,2013-02-10 19:47:00,
2013-02-10 13:49:00,65.1,35.2,-100.00,West,270,1.0,2.0,33,0.00,,,0.37,meteohub,2013-02-10 19:49:00,
2013-02-10 13:51:00,65.3,35.4,-100.00,West,270,2.0,3.0,33,0.00,,,0.37,meteohub,2013-02-10 19:51:00,
2013-02-10 13:55:00,65.3,35.4,-100.00,SW,225,1.0,3.0,33,0.00,,,0.37,meteohub,2013-02-10 19:55:00,
2013-02-10 14:01:00,65.3,34.7,-100.00,West,270,3.0,3.0,32,0.00,,,0.37,meteohub,2013-02-10 20:01:00,
2013-02-10 14:02:00,65.3,33.8,-100.00,WNW,293,3.0,3.0,31,0.00,,,0.37,meteohub,2013-02-10 20:02:00,
2013-02-10 14:03:00,65.3,33.8,-100.00,WNW,293,3.0,3.0,31,0.00,,,0.37,meteohub,2013-02-10 20:03:00,
2013-02-10 14:07:00,65.1,34.5,-100.00,WNW,293,3.0,3.0,32,0.00,,,0.37,meteohub,2013-02-10 20:07:00,
2013-02-10 14:09:00,65.3,33.8,-100.00,West,270,3.0,3.0,31,0.00,,,0.37,meteohub,2013-02-10 20:09:00,
2013-02-10 14:13:00,65.3,33.8,-100.00,ENE,68,0.0,3.0,31,0.00,,,0.37,meteohub,2013-02-10 20:13:00,
2013-02-10 14:17:00,65.7,34.2,-100.00,West,270,3.0,3.0,31,0.00,,,0.37,meteohub,2013-02-10 20:17:00,
2013-02-10 14:19:00,65.8,34.3,-100.00,ESE,113,0.0,3.0,31,0.00,,,0.37,meteohub,2013-02-10 20:19:00,
2013-02-10 14:23:00,66.4,34.9,-100.00,West,270,3.0,3.0,31,0.00,,,0.37,meteohub,2013-02-10 20:23:00,
2013-02-10 14:27:00,66.9,34.5,-100.00,East,90,2.0,3.0,30,0.00,,,0.37,meteohub,2013-02-10 20:27:00,
2013-02-10 14:31:00,67.3,34.7,-100.00,WNW,293,2.0,4.0,30,0.00,,,0.37,meteohub,2013-02-10 20:31:00,
2013-02-10 14:33:00,67.6,35.1,-100.00,WNW,293,2.0,4.0,30,0.00,,,0.37,meteohub,2013-02-10 20:33:00,
2013-02-10 14:35:00,67.8,35.2,-100.00,North,0,2.0,4.0,30,0.00,,,0.37,meteohub,2013-02-10 20:35:00,
2013-02-10 14:37:00,68.2,35.6,-100.00,West,270,5.0,5.0,30,0.00,,,0.37,meteohub,2013-02-10 20:37:00,
2013-02-10 14:39:00,68.5,35.1,-100.00,ENE,68,2.0,4.0,29,0.00,,,0.37,meteohub,2013-02-10 20:39:00,
2013-02-10 14:42:00,68.7,35.2,-100.00,West,270,0.0,5.0,29,0.00,,,0.37,meteohub,2013-02-10 20:42:00,
2013-02-10 14:44:00,68.7,35.2,-100.00,WNW,293,4.0,5.0,29,0.00,,,0.37,meteohub,2013-02-10 20:44:00,
2013-02-10 14:46:00,68.7,34.3,-100.00,ENE,68,1.0,5.0,28,0.00,,,0.37,meteohub,2013-02-10 20:46:00,
2013-02-10 14:48:00,68.5,35.1,-100.00,WNW,293,3.0,5.0,29,0.00,,,0.37,meteohub,2013-02-10 20:48:00,
2013-02-10 14:52:00,68.5,35.1,-100.00,SW,225,1.0,5.0,29,0.00,,,0.37,meteohub,2013-02-10 20:52:00,
2013-02-10 14:54:00,68.5,35.1,-100.00,East,90,0.0,5.0,29,0.00,,,0.37,meteohub,2013-02-10 20:54:00,
2013-02-10 14:56:00,68.5,35.1,-100.00,WNW,293,2.0,4.0,29,0.00,,,0.37,meteohub,2013-02-10 20:56:00,
2013-02-10 15:00:00,68.5,35.1,-100.00,West,270,5.0,5.0,29,0.00,,,0.37,meteohub,2013-02-10 21:00:00,
2013-02-10 15:02:00,68.7,35.2,-100.00,West,270,0.0,3.0,29,0.00,,,0.37,meteohub,2013-02-10 21:02:00,
2013-02-10 15:08:00,68.9,35.4,-100.00,North,0,1.0,5.0,29,0.00,,,0.37,meteohub,2013-02-10 21:08:00,
2013-02-10 15:10:00,69.1,34.5,-100.00,WNW,293,0.0,5.0,28,0.00,,,0.37,meteohub,2013-02-10 21:10:00,
2013-02-10 15:14:00,69.3,35.6,-100.00,NE,45,0.0,5.0,29,0.00,,,0.37,meteohub,2013-02-10 21:14:00,
2013-02-10 15:18:00,69.4,35.8,-100.00,NE,45,2.0,5.0,29,0.00,,,0.37,meteohub,2013-02-10 21:18:00,
2013-02-10 15:22:00,69.4,34.0,-100.00,NNW,338,0.0,2.0,27,0.00,,,0.37,meteohub,2013-02-10 21:22:00,
2013-02-10 15:24:00,69.3,33.8,-100.00,NNE,23,2.0,2.0,27,0.00,,,0.37,meteohub,2013-02-10 21:24:00,
2013-02-10 15:26:00,69.1,34.5,-100.00,ENE,68,0.0,2.0,28,0.00,,,0.37,meteohub,2013-02-10 21:26:00,
2013-02-10 15:28:00,69.1,34.5,-100.00,NNE,23,0.0,2.0,28,0.00,,,0.37,meteohub,2013-02-10 21:28:00,
2013-02-10 15:32:00,68.7,33.4,-100.00,SSW,203,2.0,2.0,27,0.00,,,0.37,meteohub,2013-02-10 21:32:00,
2013-02-10 15:38:00,68.9,33.6,-100.00,NNW,338,0.0,2.0,27,0.00,,,0.37,meteohub,2013-02-10 21:38:00,
2013-02-10 15:40:00,68.9,33.6,-100.00,ENE,68,1.0,2.0,27,0.00,,,0.37,meteohub,2013-02-10 21:40:00,
2013-02-10 15:42:00,68.9,33.6,-100.00,ENE,68,1.0,2.0,27,0.00,,,0.37,meteohub,2013-02-10 21:42:00,
2013-02-10 15:46:00,69.1,33.6,-100.00,NNE,23,1.0,3.0,27,0.00,,,0.37,meteohub,2013-02-10 21:46:00,
2013-02-10 15:48:00,69.1,33.6,-100.00,WNW,293,2.0,3.0,27,0.00,,,0.37,meteohub,2013-02-10 21:48:00,
2013-02-10 15:54:00,69.4,34.0,-100.00,East,90,0.0,3.0,27,0.00,,,0.37,meteohub,2013-02-10 21:54:00,
2013-02-10 15:58:00,69.4,34.0,-100.00,NE,45,3.0,5.0,27,0.00,,,0.37,meteohub,2013-02-10 21:58:00,
2013-02-10 16:00:00,69.4,34.0,-100.00,NNE,23,1.0,5.0,27,0.00,,,0.37,meteohub,2013-02-10 22:00:00,
2013-02-10 16:02:00,69.4,33.1,-100.00,SE,135,1.0,5.0,26,0.00,,,0.37,meteohub,2013-02-10 22:02:00,
2013-02-10 16:06:00,69.3,32.9,-100.00,ENE,68,1.0,5.0,26,0.00,,,0.37,meteohub,2013-02-10 22:06:00,
2013-02-10 16:08:00,69.1,32.7,-100.00,West,270,1.0,5.0,26,0.00,,,0.37,meteohub,2013-02-10 22:08:00,
2013-02-10 16:10:00,68.9,32.5,-100.00,NW,315,4.0,4.0,26,0.00,,,0.37,meteohub,2013-02-10 22:10:00,
2013-02-10 16:12:00,68.7,32.4,-100.00,ENE,68,8.0,8.0,26,0.00,,,0.37,meteohub,2013-02-10 22:12:00,
2013-02-10 16:14:00,68.7,32.4,-100.00,NNE,23,0.0,4.0,26,0.00,,,0.37,meteohub,2013-02-10 22:14:00,
2013-02-10 16:18:00,68.5,32.4,-100.00,WNW,293,6.0,8.0,26,0.00,,,0.37,meteohub,2013-02-10 22:18:00,
2013-02-10 16:20:00,68.5,32.4,-100.00,NW,315,3.0,8.0,26,0.00,,,0.37,meteohub,2013-02-10 22:20:00,
2013-02-10 16:24:00,68.2,32.0,-100.00,WSW,248,1.0,8.0,26,0.00,,,0.37,meteohub,2013-02-10 22:24:00,
2013-02-10 16:26:00,68.2,32.0,-100.00,WNW,293,1.0,8.0,26,0.00,,,0.37,meteohub,2013-02-10 22:26:00,
2013-02-10 16:28:00,67.8,31.6,-100.00,NE,45,2.0,8.0,26,0.00,,,0.37,meteohub,2013-02-10 22:28:00,
2013-02-10 16:30:00,67.8,31.6,-100.00,WNW,293,0.0,6.0,26,0.00,,,0.37,meteohub,2013-02-10 22:30:00,
2013-02-10 16:32:00,67.8,32.5,-100.00,West,270,3.0,6.0,27,0.00,,,0.37,meteohub,2013-02-10 22:32:00,
2013-02-10 16:34:00,67.8,31.6,-100.00,WNW,293,0.0,6.0,26,0.00,,,0.37,meteohub,2013-02-10 22:34:00,
2013-02-10 16:38:00,67.6,32.5,-100.00,WSW,248,0.0,3.0,27,0.00,,,0.37,meteohub,2013-02-10 22:38:00,
2013-02-10 16:40:00,67.6,32.5,-100.00,NNW,338,1.0,3.0,27,0.00,,,0.37,meteohub,2013-02-10 22:40:00,
2013-02-10 16:42:00,67.6,32.5,-100.00,WNW,293,3.0,3.0,27,0.00,,,0.37,meteohub,2013-02-10 22:42:00,
2013-02-10 16:44:00,67.6,32.5,-100.00,West,270,2.0,3.0,27,0.00,,,0.37,meteohub,2013-02-10 22:44:00,
2013-02-10 16:46:00,67.6,32.5,-100.00,SW,225,0.0,3.0,27,0.00,,,0.37,meteohub,2013-02-10 22:46:00,
2013-02-10 16:47:00,67.6,32.5,-100.00,SW,225,0.0,3.0,27,0.00,,,0.37,meteohub,2013-02-10 22:47:00,
2013-02-10 16:52:00,67.3,32.2,-100.00,NE,45,1.0,3.0,27,0.00,,,0.37,meteohub,2013-02-10 22:52:00,
2013-02-10 16:59:00,67.1,32.9,-100.00,NE,45,0.0,3.0,28,0.00,,,0.37,meteohub,2013-02-10 22:59:00,
2013-02-10 17:03:00,66.9,32.7,-100.00,NW,315,2.0,2.0,28,0.00,,,0.37,meteohub,2013-02-10 23:03:00,
2013-02-10 17:05:00,66.9,32.7,-100.00,NE,45,0.0,2.0,28,0.00,,,0.37,meteohub,2013-02-10 23:05:00,
2013-02-10 17:09:00,66.7,31.6,-100.00,WNW,293,2.0,2.0,27,0.00,,,0.37,meteohub,2013-02-10 23:09:00,
2013-02-10 17:11:00,66.7,31.6,-100.00,WSW,248,2.0,2.0,27,0.00,,,0.37,meteohub,2013-02-10 23:11:00,
2013-02-10 17:15:00,66.6,31.5,-100.00,NW,315,1.0,2.0,27,0.00,,,0.37,meteohub,2013-02-10 23:15:00,
2013-02-10 17:17:00,66.2,31.3,-100.00,WNW,293,0.0,2.0,27,0.00,,,0.37,meteohub,2013-02-10 23:17:00,
2013-02-10 17:19:00,66.2,32.2,-100.00,WSW,248,1.0,2.0,28,0.00,,,0.37,meteohub,2013-02-10 23:19:00,
2013-02-10 17:25:00,66.0,32.0,-100.00,WNW,293,1.0,3.0,28,0.00,,,0.37,meteohub,2013-02-10 23:25:00,
2013-02-10 17:27:00,66.0,32.0,-100.00,WNW,293,0.0,3.0,28,0.00,,,0.37,meteohub,2013-02-10 23:27:00,
2013-02-10 17:31:00,65.8,31.8,-100.00,WNW,293,0.0,3.0,28,0.00,,,0.37,meteohub,2013-02-10 23:31:00,
2013-02-10 17:35:00,65.7,31.6,-100.00,NNW,338,0.0,3.0,28,0.00,,,0.37,meteohub,2013-02-10 23:35:00,
2013-02-10 17:37:00,65.5,31.5,-100.00,NNW,338,0.0,3.0,28,0.00,,,0.37,meteohub,2013-02-10 23:37:00,
2013-02-10 17:39:00,65.3,31.3,-100.00,NNE,23,0.0,3.0,28,0.00,,,0.37,meteohub,2013-02-10 23:39:00,
2013-02-10 17:41:00,65.1,32.0,-100.00,NE,45,0.0,0.0,29,0.00,,,0.37,meteohub,2013-02-10 23:41:00,
2013-02-10 17:43:00,65.1,32.0,-100.00,NNE,23,0.0,0.0,29,0.00,,,0.37,meteohub,2013-02-10 23:43:00,
2013-02-10 17:45:00,65.1,32.0,-100.00,NNE,23,0.0,0.0,29,0.00,,,0.37,meteohub,2013-02-10 23:45:00,
2013-02-10 17:47:00,65.1,32.0,-100.00,NNE,23,0.0,0.0,29,0.00,,,0.37,meteohub,2013-02-10 23:47:00,
2013-02-10 17:49:00,64.9,32.7,-100.00,NNE,23,0.0,0.0,30,0.00,,,0.37,meteohub,2013-02-10 23:49:00,
2013-02-10 17:53:00,64.9,33.6,-100.00,NNE,23,2.0,0.0,31,0.00,,,0.37,meteohub,2013-02-10 23:53:00,
2013-02-10 17:55:00,64.8,33.4,-100.00,NE,45,0.0,2.0,31,0.00,,,0.37,meteohub,2013-02-10 23:55:00,
2013-02-10 17:57:00,64.8,33.4,-100.00,NE,45,0.0,2.0,31,0.00,,,0.37,meteohub,2013-02-10 23:57:00,
2013-02-10 17:59:00,64.6,33.3,-100.00,NNE,23,0.0,2.0,31,0.00,,,0.37,meteohub,2013-02-10 23:59:00,
2013-02-10 18:03:00,64.4,33.1,-100.00,NE,45,1.0,2.0,31,0.00,,,0.37,meteohub,2013-02-11 00:03:00,
2013-02-10 18:05:00,64.2,32.9,-100.00,NNE,23,0.0,2.0,31,0.00,,,0.00,meteohub,2013-02-11 00:05:00,
2013-02-10 18:11:00,63.9,32.7,-100.00,NE,45,0.0,2.0,31,0.00,,,0.00,meteohub,2013-02-11 00:11:00,
2013-02-10 18:13:00,63.7,33.3,-100.00,NE,45,0.0,2.0,32,0.00,,,0.00,meteohub,2013-02-11 00:13:00,
2013-02-10 18:19:00,63.5,33.8,-100.00,NE,45,0.0,2.0,33,0.00,,,0.00,meteohub,2013-02-11 00:19:00,
2013-02-10 18:21:00,63.3,33.8,-100.00,NE,45,0.0,0.0,33,0.00,,,0.00,meteohub,2013-02-11 00:21:00,
2013-02-10 18:23:00,63.1,33.6,-100.00,NE,45,0.0,0.0,33,0.00,,,0.00,meteohub,2013-02-11 00:23:00,
2013-02-10 18:25:00,63.1,33.6,-100.00,NE,45,0.0,0.0,33,0.00,,,0.00,meteohub,2013-02-11 00:25:00,
2013-02-10 18:27:00,63.0,33.4,-100.00,NE,45,0.0,0.0,33,0.00,,,0.00,meteohub,2013-02-11 00:27:00,
2013-02-10 18:29:00,63.0,33.4,-100.00,NE,45,0.0,0.0,33,0.00,,,0.00,meteohub,2013-02-11 00:29:00,
2013-02-10 18:35:00,62.6,33.1,-100.00,NE,45,0.0,0.0,33,0.00,,,0.00,meteohub,2013-02-11 00:35:00,
2013-02-10 18:37:00,62.4,32.9,-100.00,NE,45,0.0,0.0,33,0.00,,,0.00,meteohub,2013-02-11 00:37:00,
2013-02-10 18:39:00,62.4,32.9,-100.00,NE,45,0.0,0.0,33,0.00,,,0.00,meteohub,2013-02-11 00:39:00,
2013-02-10 18:45:00,62.1,33.4,-100.00,NE,45,0.0,0.0,34,0.00,,,0.00,meteohub,2013-02-11 00:45:00,
2013-02-10 18:47:00,61.9,34.0,-100.00,NE,45,0.0,0.0,35,0.00,,,0.00,meteohub,2013-02-11 00:47:00,
2013-02-10 18:53:00,61.5,33.6,-100.00,NE,45,0.0,0.0,35,0.00,,,0.00,meteohub,2013-02-11 00:53:00,
2013-02-10 18:57:00,61.3,33.4,-100.00,NE,45,0.0,0.0,35,0.00,,,0.00,meteohub,2013-02-11 00:57:00,
2013-02-10 18:59:00,61.3,33.4,-100.00,NE,45,0.0,0.0,35,0.00,,,0.00,meteohub,2013-02-11 00:59:00,
2013-02-10 19:01:00,61.2,33.3,-100.00,NE,45,0.0,0.0,35,0.00,,,0.00,meteohub,2013-02-11 01:01:00,
2013-02-10 19:03:00,61.2,34.0,-100.00,NE,45,0.0,0.0,36,0.00,,,0.00,meteohub,2013-02-11 01:03:00,
2013-02-10 19:05:00,61.2,34.0,-100.00,NE,45,0.0,0.0,36,0.00,,,0.00,meteohub,2013-02-11 01:05:00,
2013-02-10 19:09:00,61.0,33.8,-100.00,NE,45,0.0,0.0,36,0.00,,,0.00,meteohub,2013-02-11 01:09:00,
2013-02-10 19:11:00,60.6,33.4,-100.00,NE,45,0.0,0.0,36,0.00,,,0.00,meteohub,2013-02-11 01:11:00,
2013-02-10 19:15:00,60.4,34.0,-100.00,NE,45,0.0,0.0,37,0.00,,,0.00,meteohub,2013-02-11 01:15:00,
2013-02-10 19:17:00,60.4,34.0,-100.00,NE,45,0.0,0.0,37,0.00,,,0.00,meteohub,2013-02-11 01:17:00,
2013-02-10 19:19:00,60.4,34.0,-100.00,NE,45,0.0,0.0,37,0.00,,,0.00,meteohub,2013-02-11 01:19:00,
2013-02-10 19:21:00,60.3,34.5,-100.00,NE,45,0.0,0.0,38,0.00,,,0.00,meteohub,2013-02-11 01:21:00,
2013-02-10 19:27:00,60.1,34.3,-100.00,NE,45,0.0,0.0,38,0.00,,,0.00,meteohub,2013-02-11 01:27:00,
2013-02-10 19:29:00,59.9,34.2,-100.00,NE,45,0.0,0.0,38,0.00,,,0.00,meteohub,2013-02-11 01:29:00,
2013-02-10 19:31:00,59.7,34.0,-100.00,NE,45,0.0,0.0,38,0.00,,,0.00,meteohub,2013-02-11 01:31:00,
2013-02-10 19:32:00,59.7,34.0,-100.00,NE,45,0.0,0.0,38,0.00,,,0.00,meteohub,2013-02-11 01:32:00,
2013-02-10 19:35:00,59.7,34.7,-100.00,NE,45,0.0,0.0,39,0.00,,,0.00,meteohub,2013-02-11 01:35:00,
2013-02-10 19:37:00,59.7,34.7,-100.00,NE,45,0.0,0.0,39,0.00,,,0.00,meteohub,2013-02-11 01:37:00,
2013-02-10 19:43:00,59.5,35.2,-100.00,NE,45,0.0,0.0,40,0.00,,,0.00,meteohub,2013-02-11 01:43:00,
2013-02-10 19:45:00,59.5,35.2,-100.00,NE,45,0.0,0.0,40,0.00,,,0.00,meteohub,2013-02-11 01:45:00,
2013-02-10 19:47:00,59.4,35.1,-100.00,NE,45,0.0,0.0,40,0.00,,,0.00,meteohub,2013-02-11 01:47:00,
2013-02-10 19:50:00,59.4,35.1,-100.00,NE,45,0.0,0.0,40,0.00,,,0.00,meteohub,2013-02-11 01:50:00,
2013-02-10 19:54:00,59.2,34.9,-100.00,NE,45,0.0,0.0,40,0.00,,,0.00,meteohub,2013-02-11 01:54:00,
2013-02-10 19:56:00,59.2,34.9,-100.00,NE,45,0.0,0.0,40,0.00,,,0.00,meteohub,2013-02-11 01:56:00,
2013-02-10 19:58:00,59.0,34.7,-100.00,NE,45,2.0,0.0,40,0.00,,,0.00,meteohub,2013-02-11 01:58:00,
2013-02-10 20:00:00,58.8,34.5,-100.00,NE,45,1.0,0.0,40,0.00,,,0.00,meteohub,2013-02-11 02:00:00,
2013-02-10 20:02:00,58.8,34.5,-100.00,NE,45,0.0,2.0,40,0.00,,,0.00,meteohub,2013-02-11 02:02:00,
2013-02-10 20:08:00,58.5,34.9,-100.00,NNE,23,0.0,2.0,41,0.00,,,0.00,meteohub,2013-02-11 02:08:00,
2013-02-10 20:10:00,58.5,34.9,-100.00,NNE,23,0.0,2.0,41,0.00,,,0.00,meteohub,2013-02-11 02:10:00,
2013-02-10 20:14:00,58.3,34.7,-100.00,NNE,23,0.0,2.0,41,0.00,,,0.00,meteohub,2013-02-11 02:14:00,
2013-02-10 20:16:00,58.5,35.4,-100.00,NNE,23,0.0,1.0,42,0.00,,,0.00,meteohub,2013-02-11 02:16:00,
2013-02-10 20:20:00,58.3,35.2,-100.00,NNE,23,0.0,1.0,42,0.00,,,0.00,meteohub,2013-02-11 02:20:00,
2013-02-10 20:24:00,58.1,34.5,-100.00,NNE,23,0.0,1.0,41,0.00,,,0.00,meteohub,2013-02-11 02:24:00,
2013-02-10 20:26:00,58.1,35.1,-100.00,NNE,23,0.0,0.0,42,0.00,,,0.00,meteohub,2013-02-11 02:26:00,
2013-02-10 20:30:00,57.9,34.9,-100.00,NNE,23,0.0,0.0,42,0.00,,,0.00,meteohub,2013-02-11 02:30:00,
2013-02-10 20:32:00,57.9,34.9,-100.00,NNE,23,0.0,0.0,42,0.00,,,0.00,meteohub,2013-02-11 02:32:00,
2013-02-10 20:38:00,57.9,34.9,-100.00,East,90,0.0,0.0,42,0.00,,,0.00,meteohub,2013-02-11 02:38:00,
2013-02-10 20:40:00,57.9,34.9,-100.00,East,90,0.0,0.0,42,0.00,,,0.00,meteohub,2013-02-11 02:40:00,
2013-02-10 20:44:00,57.9,34.9,-100.00,NE,45,0.0,0.0,42,0.00,,,0.00,meteohub,2013-02-11 02:44:00,
2013-02-10 20:46:00,57.9,35.6,-100.00,NE,45,0.0,0.0,43,0.00,,,0.00,meteohub,2013-02-11 02:46:00,
2013-02-10 20:50:00,57.7,35.4,-100.00,NE,45,0.0,0.0,43,0.00,,,0.00,meteohub,2013-02-11 02:50:00,
2013-02-10 20:54:00,57.7,36.0,-100.00,NE,45,0.0,0.0,44,0.00,,,0.00,meteohub,2013-02-11 02:54:00,
2013-02-10 20:56:00,57.7,36.0,-100.00,NE,45,0.0,0.0,44,0.00,,,0.00,meteohub,2013-02-11 02:56:00,
2013-02-10 21:00:00,57.7,36.0,-100.00,NE,45,0.0,0.0,44,0.00,,,0.00,meteohub,2013-02-11 03:00:00,
2013-02-10 21:02:00,57.6,35.8,-100.00,NE,45,0.0,0.0,44,0.00,,,0.00,meteohub,2013-02-11 03:02:00,
2013-02-10 21:06:00,57.6,35.8,-100.00,NE,45,0.0,0.0,44,0.00,,,0.00,meteohub,2013-02-11 03:06:00,
2013-02-10 21:10:00,57.4,35.6,-100.00,NE,45,0.0,0.0,44,0.00,,,0.00,meteohub,2013-02-11 03:10:00,
2013-02-10 21:14:00,57.4,35.6,-100.00,NE,45,0.0,0.0,44,0.00,,,0.00,meteohub,2013-02-11 03:14:00,
2013-02-10 21:18:00,57.4,35.6,-100.00,NE,45,0.0,0.0,44,0.00,,,0.00,meteohub,2013-02-11 03:18:00,
2013-02-10 21:22:00,57.4,35.6,-100.00,NE,45,0.0,0.0,44,0.00,,,0.00,meteohub,2013-02-11 03:22:00,
2013-02-10 21:26:00,57.4,35.6,-100.00,NE,45,0.0,0.0,44,0.00,,,0.00,meteohub,2013-02-11 03:26:00,
2013-02-10 21:28:00,57.4,35.6,-100.00,NE,45,0.0,0.0,44,0.00,,,0.00,meteohub,2013-02-11 03:28:00,
2013-02-10 21:32:00,57.4,35.6,-100.00,East,90,0.0,0.0,44,0.00,,,0.00,meteohub,2013-02-11 03:32:00,
2013-02-10 21:38:00,57.4,35.6,-100.00,East,90,0.0,0.0,44,0.00,,,0.00,meteohub,2013-02-11 03:38:00,
2013-02-10 21:42:00,57.2,35.4,-100.00,East,90,0.0,0.0,44,0.00,,,0.00,meteohub,2013-02-11 03:42:00,
2013-02-10 21:44:00,57.0,35.2,-100.00,East,90,0.0,0.0,44,0.00,,,0.00,meteohub,2013-02-11 03:44:00,
2013-02-10 21:48:00,57.2,36.0,-100.00,East,90,0.0,0.0,45,0.00,,,0.00,meteohub,2013-02-11 03:48:00,
2013-02-10 21:50:00,57.0,36.0,-100.00,East,90,0.0,0.0,45,0.00,,,0.00,meteohub,2013-02-11 03:50:00,
2013-02-10 21:56:00,57.0,36.0,-100.00,East,90,0.0,0.0,45,0.00,,,0.00,meteohub,2013-02-11 03:56:00,
2013-02-10 22:00:00,57.0,36.0,-100.00,East,90,0.0,0.0,45,0.00,,,0.00,meteohub,2013-02-11 04:00:00,
2013-02-10 22:02:00,57.0,36.0,-100.00,East,90,0.0,0.0,45,0.00,,,0.00,meteohub,2013-02-11 04:02:00,
2013-02-10 22:04:00,57.0,36.0,-100.00,East,90,0.0,0.0,45,0.00,,,0.00,meteohub,2013-02-11 04:04:00,
2013-02-10 22:06:00,56.8,35.8,-100.00,SSE,158,0.0,0.0,45,0.00,,,0.00,meteohub,2013-02-11 04:06:00,
2013-02-10 22:08:00,57.0,36.0,-100.00,SSE,158,0.0,0.0,45,0.00,,,0.00,meteohub,2013-02-11 04:08:00,
2013-02-10 22:12:00,56.8,36.3,-100.00,SSE,158,0.0,0.0,46,0.00,,,0.00,meteohub,2013-02-11 04:12:00,
2013-02-10 22:16:00,56.8,36.3,-100.00,SSE,158,0.0,0.0,46,0.00,,,0.00,meteohub,2013-02-11 04:16:00,
2013-02-10 22:17:00,56.8,36.3,-100.00,SSE,158,0.0,0.0,46,0.00,,,0.00,meteohub,2013-02-11 04:17:00,
2013-02-10 22:18:00,56.7,36.1,-100.00,SSE,158,0.0,0.0,46,0.00,,,0.00,meteohub,2013-02-11 04:18:00,
2013-02-10 22:24:00,56.7,36.1,-100.00,SSE,158,0.0,0.0,46,0.00,,,0.00,meteohub,2013-02-11 04:24:00,
2013-02-10 22:26:00,56.7,36.1,-100.00,SSE,158,0.0,0.0,46,0.00,,,0.00,meteohub,2013-02-11 04:26:00,
2013-02-10 22:29:00,56.5,36.0,-100.00,SSE,158,0.0,0.0,46,0.00,,,0.00,meteohub,2013-02-11 04:29:00,
2013-02-10 22:32:00,56.5,36.5,-100.00,SSE,158,0.0,0.0,47,0.00,,,0.00,meteohub,2013-02-11 04:32:00,
2013-02-10 22:35:00,56.5,36.5,-100.00,SSE,158,0.0,0.0,47,0.00,,,0.00,meteohub,2013-02-11 04:35:00,
2013-02-10 22:37:00,56.5,36.5,-100.00,SSE,158,0.0,0.0,47,0.00,,,0.00,meteohub,2013-02-11 04:37:00,
2013-02-10 22:41:00,56.5,37.0,-100.00,SSE,158,0.0,0.0,48,0.00,,,0.00,meteohub,2013-02-11 04:41:00,
2013-02-10 22:43:00,56.5,37.0,-100.00,SSE,158,0.0,0.0,48,0.00,,,0.00,meteohub,2013-02-11 04:43:00,
2013-02-10 22:47:00,56.3,36.9,-100.00,SSE,158,0.0,0.0,48,0.00,,,0.00,meteohub,2013-02-11 04:47:00,
2013-02-10 22:53:00,56.1,36.7,-100.00,SSE,158,0.0,0.0,48,0.00,,,0.00,meteohub,2013-02-11 04:53:00,
2013-02-10 22:55:00,56.1,36.7,-100.00,SSE,158,0.0,0.0,48,0.00,,,0.00,meteohub,2013-02-11 04:55:00,
2013-02-10 22:57:00,56.1,37.2,-100.00,West,270,0.0,0.0,49,0.00,,,0.00,meteohub,2013-02-11 04:57:00,
2013-02-10 23:01:00,56.1,37.2,-100.00,WNW,293,0.0,0.0,49,0.00,,,0.00,meteohub,2013-02-11 05:01:00,
2013-02-10 23:02:00,55.9,37.0,-100.00,WNW,293,0.0,0.0,49,0.00,,,0.00,meteohub,2013-02-11 05:02:00,
2013-02-10 23:07:00,55.9,37.0,-100.00,WNW,293,0.0,0.0,49,0.00,,,0.00,meteohub,2013-02-11 05:07:00,
2013-02-10 23:09:00,55.9,37.0,-100.00,WNW,293,0.0,0.0,49,0.00,,,0.00,meteohub,2013-02-11 05:09:00,
2013-02-10 23:13:00,55.8,36.9,-100.00,WNW,293,0.0,0.0,49,0.00,,,0.00,meteohub,2013-02-11 05:13:00,
2013-02-10 23:15:00,55.8,37.4,-100.00,WNW,293,0.0,0.0,50,0.00,,,0.00,meteohub,2013-02-11 05:15:00,
2013-02-10 23:17:00,55.8,37.4,-100.00,WNW,293,0.0,0.0,50,0.00,,,0.00,meteohub,2013-02-11 05:17:00,
2013-02-10 23:23:00,55.6,37.2,-100.00,NNE,23,0.0,0.0,50,0.00,,,0.00,meteohub,2013-02-11 05:23:00,
2013-02-10 23:25:00,55.6,37.2,-100.00,NE,45,0.0,0.0,50,0.00,,,0.00,meteohub,2013-02-11 05:25:00,
2013-02-10 23:29:00,55.4,37.6,-100.00,NE,45,0.0,0.0,51,0.00,,,0.00,meteohub,2013-02-11 05:29:00,
2013-02-10 23:31:00,55.4,37.6,-100.00,NE,45,0.0,0.0,51,0.00,,,0.00,meteohub,2013-02-11 05:31:00,
2013-02-10 23:33:00,55.4,37.6,-100.00,NE,45,0.0,0.0,51,0.00,,,0.00,meteohub,2013-02-11 05:33:00,
2013-02-10 23:35:00,55.4,37.6,-100.00,NE,45,0.0,0.0,51,0.00,,,0.00,meteohub,2013-02-11 05:35:00,
2013-02-10 23:39:00,55.2,37.9,-100.00,NE,45,0.0,0.0,52,0.00,,,0.00,meteohub,2013-02-11 05:39:00,
2013-02-10 23:41:00,55.2,37.9,-100.00,SE,135,0.0,0.0,52,0.00,,,0.00,meteohub,2013-02-11 05:41:00,
2013-02-10 23:43:00,55.2,37.9,-100.00,SE,135,0.0,0.0,52,0.00,,,0.00,meteohub,2013-02-11 05:43:00,
2013-02-10 23:47:00,55.2,37.9,-100.00,ENE,68,0.0,0.0,52,0.00,,,0.00,meteohub,2013-02-11 05:47:00,
2013-02-10 23:49:00,55.2,38.3,-100.00,ENE,68,0.0,0.0,53,0.00,,,0.00,meteohub,2013-02-11 05:49:00,
2013-02-10 23:53:00,55.2,38.3,-100.00,ENE,68,0.0,0.0,53,0.00,,,0.00,meteohub,2013-02-11 05:53:00,
2013-02-10 23:59:00,55.0,38.3,-100.00,ESE,113,0.0,0.0,53,0.00,,,0.00,meteohub,2013-02-11 05:59:00,